Saranac Lake, NY

5:56 PM EDT on August 19, 2017 (GMT -0400)
Adirondack Regional

Weather History for KSLK - April, 2013

Change the Weather History Date:

Tuesday, April 30, 2013

  Actual Average Record
Temperature  
Mean Temperature 52 °F 44 °F  
Max Temperature 67 °F 58 °F 79 °F (2004)
Min Temperature 37 °F 31 °F 12 °F (1984)
Degree Days  
Heating Degree Days 13 21  
Month to date heating degree days 837 810  
Since 1 July heating degree days 8355 8771  
Cooling Degree Days 0 0  
Month to date cooling degree days 0 0  
Year to date cooling degree days 0 0  
Growing Degree Days 4 (Base 50)    
Moisture  
Dew Point 44 °F    
Average Humidity 72    
Maximum Humidity 100    
Minimum Humidity 44    
Precipitation  
Precipitation 0.01 in 0.12 in 0.99 in (2014)
Month to date precipitation 2.52 2.89  
Year to date precipitation 5.26 8.91  
Sea Level Pressure  
Sea Level Pressure 30.21 in    
Wind  
Wind Speed 4 mph (SSW)    
Max Wind Speed 20 mph    
Max Gust Speed 23 mph    
Visibility 10 miles    
Events Rain    
T = Trace of Precipitation, MM = Missing Value Source: NWS Daily Summary

Daily Weather History Graph

Daily Weather History Graph

Search for Another Location

Airport or City:

Trip Planner

Search our weather history database for the weather conditions in past years. The results will help you decide how hot, cold, wet, or windy it might be!

Date:

Astronomy

Apr. 30, 2013 Rise Set
Actual Time 5:48 AM EDT 8:00 PM EDT
Civil Twilight 5:16 AM EDT 8:32 PM EDT
Nautical Twilight 4:37 AM EDT 9:11 PM EDT
Astronomical Twilight 3:54 AM EDT 9:55 PM EDT
Moon 12:23 AM EDT (4/30) 10:12 AM EDT (4/30)
Length of Visible Light 15h 15m
Length of Day
14h 11m
Waning Gibbous, 70% of the Moon is Illuminated
Apr 30
Waning Gibbous
May 2
Last Quarter
May 9
New
May 18
First Quarter
May 25
Full

Hourly Weather History & Observations

Time (EDT) Temp. Dew Point Humidity Pressure Visibility Wind Dir Wind Speed Gust Speed Precip Events Conditions
12:17 AM 48.2 °F 42.8 °F 82% 30.14 in 10.0 mi South 4.6 mph - N/A   Mostly Cloudy
12:28 AM 48.2 °F 42.8 °F 82% 30.14 in 10.0 mi South 4.6 mph - N/A   Mostly Cloudy
12:37 AM 48.2 °F 42.8 °F 82% 30.14 in 10.0 mi South 4.6 mph - N/A   Mostly Cloudy
12:51 AM 48.9 °F 42.1 °F 77% 30.15 in 10.0 mi South 3.5 mph - N/A   Overcast
1:51 AM 46.0 °F 44.1 °F 93% 30.16 in 9.0 mi Calm Calm - 0.01 in Rain Light Rain
2:51 AM 46.0 °F 44.1 °F 93% 30.17 in 10.0 mi Calm Calm - 0.00 in   Overcast
3:51 AM 45.0 °F 44.1 °F 97% 30.18 in 8.0 mi Calm Calm - N/A   Overcast
4:51 AM 45.0 °F 44.1 °F 97% 30.19 in 9.0 mi Calm Calm - N/A   Overcast
5:51 AM 46.0 °F 44.1 °F 93% 30.21 in 10.0 mi Calm Calm - N/A   Overcast
6:51 AM 46.0 °F 44.1 °F 93% 30.22 in 10.0 mi Calm Calm - N/A   Overcast
7:51 AM 48.9 °F 45.0 °F 86% 30.24 in 10.0 mi Calm Calm - N/A   Overcast
8:51 AM 52.0 °F 46.0 °F 80% 30.25 in 10.0 mi Calm Calm - N/A   Overcast
9:51 AM 55.0 °F 46.0 °F 72% 30.24 in 10.0 mi South 5.8 mph - N/A   Overcast
10:51 AM 57.9 °F 46.0 °F 65% 30.23 in 10.0 mi Calm Calm - N/A   Overcast
11:51 AM 62.1 °F 46.0 °F 56% 30.22 in 10.0 mi SSW 11.5 mph 16.1 mph N/A   Overcast
12:51 PM 62.1 °F 46.0 °F 56% 30.22 in 10.0 mi West 9.2 mph - N/A   Overcast
2:51 PM 64.9 °F 45.0 °F 48% 30.23 in 10.0 mi SW 11.5 mph - N/A   Overcast
3:51 PM 66.9 °F 45.0 °F 45% 30.23 in 10.0 mi SSW 13.8 mph 18.4 mph N/A   Overcast
4:51 PM 66.0 °F 44.1 °F 45% 30.23 in 10.0 mi SW 11.5 mph - N/A   Mostly Cloudy
5:51 PM 64.9 °F 43.0 °F 45% 30.23 in 10.0 mi SW 8.1 mph - N/A   Mostly Cloudy
6:51 PM 64.0 °F 44.1 °F 48% 30.24 in 10.0 mi SW 6.9 mph - N/A   Overcast
7:51 PM 59.0 °F 44.1 °F 58% 30.24 in 10.0 mi SSW 3.5 mph - N/A   Clear
8:51 PM 48.9 °F 44.1 °F 83% 30.26 in 10.0 mi Calm Calm - N/A   Clear
9:51 PM 46.9 °F 43.0 °F 86% 30.27 in 10.0 mi Calm Calm - N/A   Clear
10:51 PM 42.1 °F 41.0 °F 96% 30.27 in 10.0 mi Calm Calm - N/A   Clear
11:51 PM 39.9 °F 39.0 °F 97% 30.28 in 10.0 mi Calm Calm - N/A   Clear